Regional Weather Roundup
Issued by NWS

Home | Current Version | Previous Version | Text Only | Print | Product List | Glossary On
Versions: 1 2 3 4 5 6 7 8 9 10 11 12 13 14 15 16 17 18 19 20 21 22 23 24 25 26 27 28 29 30 31 32 33 34 35 36 37 38 39 40 41 42 43 44 45 46 47 48 49 50
000
ASUS43 KLMK 221010
RWRKY
KENTUCKY REGIONAL WEATHER ROUNDUP
NATIONAL WEATHER SERVICE LOUISVILLE KY
500 AM EST MON DEC 22 2014

NOTE "FAIR" INDICATES FEW OR NO CLOUDS BELOW 12,000 FEET
WITH NO SIGNIFICANT WEATHER AND/OR OBSTRUCTIONS TO VISIBILITY.

KYZ001>023-026-027-061>063-070>075-221100-
WESTERN AND SOUTH CENTRAL KENTUCKY

CITY           SKY/WX    TMP DP  RH WIND       PRES   REMARKS
PADUCAH        CLOUDY    42  35  76 SE7       29.88F
HENDERSON      CLOUDY    37  28  70 E3        29.94F
OWENSBORO      CLOUDY    40  32  73 SE6       29.96F
HOPKINSVILLE   CLOUDY    43  40  89 SE7       29.93F
BOWLING GREEN  CLOUDY    34  28  79 CALM      29.97F
GLASGOW        CLOUDY    42  38  87 SE3       29.97S
$$

KYZ024-025-028>034-038-045-046-053-221100-
NORTH CENTRAL KENTUCKY

CITY           SKY/WX    TMP DP  RH WIND       PRES   REMARKS
LOUISVILLE/SDF CLOUDY    38  29  70 CALM      30.00S
LOUISVILLE/LOU CLOUDY    37  29  72 CALM      30.00F
FORT KNOX      CLOUDY    34  29  82 E6        29.96F WCI  28
$$

KYZ035>037-039>044-047>052-055>060-089>105-221100-
NORTHEAST KENTUCKY

CITY           SKY/WX    TMP DP  RH WIND       PRES   REMARKS
LEXINGTON      CLOUDY    38  29  70 SE6       30.01S WCI  33
COVINGTON      CLOUDY    33  25  72 SE7       30.01F WCI  27
FRANKFORT      CLOUDY    34  29  82 E3        30.00F
$$

KYZ054-064>069-076>088-106>120-221100-
SOUTHEAST KENTUCKY

CITY           SKY/WX    TMP DP  RH WIND       PRES   REMARKS
JACKSON        CLOUDY    39  30  70 CALM      30.01F
LONDON         CLOUDY    40  32  73 S5        30.01F
SOMERSET       CLOUDY    37  32  81 CALM      30.02S
MIDDLESBORO    CLOUDY    43  37  78 W3        30.04S
MONTICELLO     CLOUDY    44  37  76 CALM      30.03S
$$



USA.gov is the U.S. government's official web portal to all federal, state and local government web resources and services.